Regional Weather Roundup
Issued by NWS Boston, MA

Current Version | Previous Version | Text Only | Print | Product List | Glossary On
Versions: 1 2 3 4 5 6 7 8 9 10 11 12 13 14 15 16 17 18 19 20 21 22 23 24 25 26 27 28 29 30 31 32 33 34 35 36 37 38 39 40 41 42 43 44 45 46 47 48 49 50
000 ASUS41 KBOX 181310 RWRBOX REGIONAL WEATHER ROUNDUP NATIONAL WEATHER SERVICE TAUNTON MA 900 AM EDT THU SEP 18 2014 NOTE: "FAIR" INDICATES FEW OR NO CLOUDS BELOW 12,000 FEET WITH NO SIGNIFICANT WEATHER AND/OR OBSTRUCTIONS TO VISIBILITY. THE FOLLOWING OBSERVATION LOCATIONS DO NOT REPORT PRESENT WEATHER...PROVINCETOWN... SMITHFIELD...BLOCK ISLAND...KEENE...AND OXFORD. MAZALL-181400- EASTERN MASSACHUSETTS CITY SKY/WX TMP DP RH WIND PRES REMARKS BOSTON MOSUNNY 62 46 55 NW8 29.98R BEVERLY SUNNY 58 48 69 W6 29.97R LAWRENCE SUNNY 57 48 72 SW3 30.00R BEDFORD SUNNY 55 49 80 W3 29.98R BLUE HILL N/A 59 46 62 W8 29.97S NORWOOD SUNNY 58 49 72 CALM 29.98R MARSHFIELD NOT AVBL PLYMOUTH SUNNY 60 47 61 NW5 29.99R TAUNTON SUNNY 59 48 67 W3 29.99R NEW BEDFORD SUNNY 63 52 67 NW3 29.98R $$ MAZALL-181400- CAPE COD AND THE ISLANDS CITY SKY/WX TMP DP RH WIND PRES REMARKS FALMOUTH SUNNY 63 48 59 NW7 29.98S HYANNIS SUNNY 65 47 52 NW7 29.97R CHATHAM SUNNY 65 52 62 VRB3 29.98S PROVINCETOWN SUNNY 63 52 67 W9 29.98R NANTUCKET SUNNY 67 46 47 NW10 29.98R MARTHAS VNYRD SUNNY 65 52 62 NW5 29.98S $$ MAZALL-181400- CENTRAL AND WESTERN MASSACHUSETTS CITY SKY/WX TMP DP RH WIND PRES REMARKS WORCESTER SUNNY 58 46 64 W12 30.00R FITCHBURG SUNNY 61 47 59 N5 30.00R ORANGE FOG 45 44 97 CALM 30.01R VSB 1/2 SPRINGFIELD SUNNY 50 49 97 VRB1 30.01R WESTFIELD SUNNY 51 49 92 CALM 30.01S NORTH ADAMS CLOUDY 44 44 100 SE3 30.03S FOG PITTSFIELD FOG 45 45 100 CALM 30.01S VSB 1/4 $$ RIZALL-181400- RHODE ISLAND CITY SKY/WX TMP DP RH WIND PRES REMARKS PROVIDENCE MOSUNNY 61 48 62 CALM 29.99S NEWPORT SUNNY 63 48 58 NW6 29.99R BLOCK ISLAND SUNNY 63 48 59 N6 30.00R SMITHFIELD SUNNY 59 45 58 W7 29.99S WESTERLY SUNNY 60 51 72 CALM 30.00R $$ CTZALL-181400- CONNECTICUT CITY SKY/WX TMP DP RH WIND PRES REMARKS BRADLEY INTL MOSUNNY 55 47 74 CALM 30.01R HARTFORD SUNNY 52 49 89 MISG 30.02R BRIDGEPORT SUNNY 62 51 67 CALM 30.00S DANBURY SUNNY 54 48 80 CALM 30.03R GROTON SUNNY 60 50 69 N5 29.99S NEW HAVEN SUNNY 62 49 62 N6 30.00S CHESTER FAIR 63 52 67 CALM 30.01S MERIDEN SUNNY 57 49 74 CALM 30.01S WILLIMANTIC SUNNY 50 46 86 CALM 30.01S OXFORD SUNNY 57 46 67 N3 30.02S $$ MEZ002-015-021-024-NHZ003-005-008-011-012-014-VTZ005-008-181400- NORTHERN NEW ENGLAND CITY SKY/WX TMP DP RH WIND PRES REMARKS PORTLAND ME MOSUNNY 56 49 77 NW6 29.96R BANGOR ME PTSUNNY 55 50 83 W8 29.93S CONCORD NH SUNNY 50 46 86 CALM 29.99S MANCHESTER NH MOSUNNY 55 45 68 CALM 29.97R NASHUA NH SUNNY 54 47 77 CALM 29.99R PORTSMOUTH NH MOSUNNY 56 48 72 W7 29.96R JAFFREY NH SUNNY 54 49 83 CALM 30.00S KEENE NH CLOUDY 45 36 70 CALM 30.02R VSB 1/4 BURLINGTON VT CLOUDY 51 47 86 N7 30.04R MT. WASHINGTON FOG 34 34 100 NW39 N/A VSB 1/16WCI 18 $$ NYZ052-076-181400- EASTERN NEW YORK CITY SKY/WX TMP DP RH WIND PRES REMARKS ALBANY MOSUNNY 52 48 86 S5 30.02S NEW YORK CITY MOSUNNY 64 49 57 E5 30.00S $$ ANZALL-181400- MARINE OBSERVATIONS STATION/POSITION TIME TEMP WIND PRES VSBY WAVE AIR SEA DIR/SP/G HT/PER (UTC) (F) (DEG/KT/KT) (MB) (MI) (FT/S) BOSTON BUOY 1250 58 60 290/ 10/ 12 1015.0R 3/13 BUZZARDS BAY 1200 310/ 6/ 6 1016.0R NANTUCKET SOUND 1250 64 68 320/ 8/ 12 1014.9R 1/13 MASS BAY-STELLWA 1204 59 60 280/ 10/ 12 N/A 1 7/8 ISLE OF SHOALS 1300 56 290/ 16/ 16 1013.7R S OF BLOCK IS 1208 68 N/A 4/13 $$ ......................KEY......................... SKY/WX - SKY CONDITION/PRESENT WEATHER TMP - TEMPERATURE IN FAHRENHEIT DWPT - DEWPOINT IN FAHRENHEIT RH - RELATIVE HUMIDITY IN PERCENT WIND - DIRECTION AND SPEED IN MPH PRES - MEAN SEA LEVEL PRESSURE IN INCHES OF HG WCI - WIND CHILL INDEX VSB - VISIBILITY IN MILES HX - HEAT INDEX TC - TEMPERATURE IN CELSIUS VRB - VARIABLE WIND DIRECTION N/A - NOT AVAILABLE

USA.gov is the U.S. government's official web portal to all federal, state and local government web resources and services.